Location: Dürabuch
(48.2640°N, 11.2185°E)
Time: 23:16:12
(UTC+00:00)

Cosmos 1300 Rocket - Pass Details

Date: 23 May 2024
Orbit: 597 x 624 km, 82.5° (Epoch: 14 June)

Event Time Altitude Azimuth Distance (km) Brightness Sun altitude
Rises 01:10:50 0° 350° (N) 2,875 7.8 -16.1°
Reaches altitude 10° 01:13:04 10° 351° (N) 1,962 6.9 -16.0°
Maximum altitude 01:17:25 88° 78° (ENE) 609 3.5 -15.6°
Enters shadow 01:20:28 19° 171° (S) 1,441 5.0 -15.3°
